Time,TemperatureF,DewpointF,PressureIn,WindDirection,WindDirectionDegrees,WindSpeedMPH,WindSpeedGustMPH,Humidity,HourlyPrecipIn,Conditions,Clouds,dailyrainin,SoftwareType,DateUTC
2013-02-24 00:03:00,44.8,44.0,29.92,SSW,207,1.0,4.0,98,0.00,,,0.00,weatherlink.com 1.10,2013-02-24 05:03:00,
2013-02-24 00:18:00,44.9,44.0,29.92,WSW,244,2.0,7.0,98,0.00,,,0.00,weatherlink.com 1.10,2013-02-24 05:18:00,
2013-02-24 00:33:00,45.0,45.0,29.91,WSW,251,3.0,3.0,98,0.00,,,0.00,weatherlink.com 1.10,2013-02-24 05:33:00,
2013-02-24 00:48:00,45.1,45.0,29.91,WSW,251,2.0,8.0,98,0.00,,,0.00,weatherlink.com 1.10,2013-02-24 05:48:00,
2013-02-24 01:03:00,45.1,45.0,29.91,WNW,293,0.0,4.0,98,0.00,,,0.00,weatherlink.com 1.10,2013-02-24 06:03:00,
2013-02-24 01:18:00,45.1,45.0,29.91,WSW,248,1.0,4.0,98,0.00,,,0.00,weatherlink.com 1.10,2013-02-24 06:18:00,
2013-02-24 01:33:00,45.1,45.0,29.91,West,265,0.0,3.0,98,0.00,,,0.00,weatherlink.com 1.10,2013-02-24 06:33:00,
2013-02-24 01:48:00,45.1,45.0,29.91,SW,232,0.0,4.0,98,0.00,,,0.00,weatherlink.com 1.10,2013-02-24 06:48:00,
2013-02-24 02:03:00,45.0,45.0,29.90,West,261,0.0,3.0,98,0.00,,,0.00,weatherlink.com 1.10,2013-02-24 07:03:00,
2013-02-24 02:18:00,44.8,44.0,29.90,West,266,3.0,4.0,98,0.00,,,0.00,weatherlink.com 1.10,2013-02-24 07:18:00,
2013-02-24 02:33:00,44.6,44.0,29.90,SSW,213,1.0,4.0,98,0.00,,,0.00,weatherlink.com 1.10,2013-02-24 07:33:00,
2013-02-24 02:48:00,44.5,44.0,29.90,WNW,284,0.0,4.0,98,0.00,,,0.00,weatherlink.com 1.10,2013-02-24 07:48:00,
2013-02-24 03:03:00,44.4,44.0,29.90,SSW,209,3.0,3.0,98,0.00,,,0.00,weatherlink.com 1.10,2013-02-24 08:03:00,
2013-02-24 03:18:00,44.2,44.0,29.90,SSW,207,5.0,5.0,98,0.00,,,0.00,weatherlink.com 1.10,2013-02-24 08:18:00,
2013-02-24 03:33:00,43.9,43.0,29.90,NE,40,0.0,4.0,98,0.00,,,0.00,weatherlink.com 1.10,2013-02-24 08:33:00,
2013-02-24 03:48:00,43.7,43.0,29.90,SW,216,0.0,2.0,98,0.00,,,0.00,weatherlink.com 1.10,2013-02-24 08:48:00,
2013-02-24 04:04:00,43.6,43.0,29.90,WSW,254,0.0,5.0,98,0.00,,,0.00,weatherlink.com 1.10,2013-02-24 09:04:00,
2013-02-24 04:19:00,43.3,43.0,29.90,West,273,1.0,3.0,98,0.00,,,0.00,weatherlink.com 1.10,2013-02-24 09:19:00,
2013-02-24 04:34:00,43.1,43.0,29.91,SSW,202,0.0,7.0,98,0.00,,,0.00,weatherlink.com 1.10,2013-02-24 09:34:00,
2013-02-24 04:49:00,43.1,43.0,29.91,SW,217,0.0,2.0,98,0.00,,,0.00,weatherlink.com 1.10,2013-02-24 09:49:00,
2013-02-24 05:04:00,43.1,43.0,29.92,WNW,297,0.0,2.0,98,0.00,,,0.00,weatherlink.com 1.10,2013-02-24 10:04:00,
2013-02-24 05:19:00,43.0,43.0,29.93,West,269,0.0,3.0,98,0.00,,,0.00,weatherlink.com 1.10,2013-02-24 10:19:00,
2013-02-24 05:34:00,43.0,43.0,29.93,SW,219,1.0,4.0,98,0.00,,,0.00,weatherlink.com 1.10,2013-02-24 10:34:00,
2013-02-24 05:49:00,42.9,42.0,29.94,SSW,209,0.0,2.0,98,0.00,,,0.00,weatherlink.com 1.10,2013-02-24 10:49:00,
2013-02-24 06:04:00,42.6,42.0,29.95,West,263,2.0,3.0,98,0.00,,,0.00,weatherlink.com 1.10,2013-02-24 11:04:00,
2013-02-24 06:19:00,42.2,42.0,29.95,SW,217,2.0,3.0,98,0.00,,,0.00,weatherlink.com 1.10,2013-02-24 11:19:00,
2013-02-24 06:34:00,41.9,41.0,29.95,SSW,203,1.0,3.0,98,0.00,,,0.00,weatherlink.com 1.10,2013-02-24 11:34:00,
2013-02-24 06:49:00,41.6,41.0,29.96,West,273,0.0,2.0,98,0.00,,,0.00,weatherlink.com 1.10,2013-02-24 11:49:00,
2013-02-24 07:04:00,41.6,41.0,29.96,West,273,0.0,1.0,98,0.00,,,0.00,weatherlink.com 1.10,2013-02-24 12:04:00,
2013-02-24 07:19:00,41.2,41.0,29.97,SW,232,2.0,3.0,98,0.00,,,0.00,weatherlink.com 1.10,2013-02-24 12:19:00,
2013-02-24 07:34:00,41.0,41.0,29.98,WSW,243,0.0,1.0,98,0.00,,,0.00,weatherlink.com 1.10,2013-02-24 12:34:00,
2013-02-24 07:49:00,41.3,41.0,29.98,WSW,243,0.0,0.0,98,0.00,,,0.00,weatherlink.com 1.10,2013-02-24 12:49:00,
2013-02-24 08:04:00,41.3,41.0,29.99,West,259,0.0,2.0,98,0.00,,,0.00,weatherlink.com 1.10,2013-02-24 13:04:00,
2013-02-24 08:19:00,41.1,41.0,29.99,WNW,295,0.0,2.0,98,0.00,,,0.00,weatherlink.com 1.10,2013-02-24 13:19:00,
2013-02-24 08:34:00,41.4,41.0,30.00,WNW,288,0.0,1.0,98,0.00,,,0.00,weatherlink.com 1.10,2013-02-24 13:34:00,
2013-02-24 08:49:00,42.6,42.0,30.01,ENE,68,0.0,1.0,99,0.00,,,0.00,weatherlink.com 1.10,2013-02-24 13:49:00,
2013-02-24 09:04:00,43.7,44.0,30.01,East,93,0.0,2.0,99,0.00,,,0.00,weatherlink.com 1.10,2013-02-24 14:04:00,
2013-02-24 09:19:00,44.2,44.0,30.01,East,93,0.0,1.0,99,0.00,,,0.00,weatherlink.com 1.10,2013-02-24 14:19:00,
2013-02-24 09:34:00,44.6,44.0,30.01,SSE,150,1.0,2.0,99,0.00,,,0.00,weatherlink.com 1.10,2013-02-24 14:34:00,
2013-02-24 09:49:00,45.9,46.0,30.01,SSW,206,0.0,1.0,99,0.00,,,0.00,weatherlink.com 1.10,2013-02-24 14:49:00,
2013-02-24 10:04:00,47.1,46.0,30.02,West,281,0.0,3.0,96,0.00,,,0.00,weatherlink.com 1.10,2013-02-24 15:04:00,
2013-02-24 10:19:00,48.6,46.0,30.02,WSW,256,0.0,2.0,90,0.00,,,0.00,weatherlink.com 1.10,2013-02-24 15:19:00,
2013-02-24 10:34:00,50.4,45.0,30.01,East,83,3.0,3.0,82,0.00,,,0.00,weatherlink.com 1.10,2013-02-24 15:34:00,
2013-02-24 10:50:00,52.6,45.0,30.02,South,183,0.0,3.0,75,0.00,,,0.00,weatherlink.com 1.10,2013-02-24 15:50:00,
2013-02-24 11:05:00,54.2,46.0,30.02,East,99,0.0,3.0,75,0.00,,,0.00,weatherlink.com 1.10,2013-02-24 16:05:00,
2013-02-24 11:20:00,55.6,46.0,30.02,East,98,1.0,3.0,69,0.00,,,0.00,weatherlink.com 1.10,2013-02-24 16:20:00,
2013-02-24 11:35:00,57.0,46.0,30.02,SSE,153,0.0,2.0,66,0.00,,,0.00,weatherlink.com 1.10,2013-02-24 16:35:00,
2013-02-24 11:50:00,58.4,46.0,30.01,ENE,78,0.0,3.0,64,0.00,,,0.00,weatherlink.com 1.10,2013-02-24 16:50:00,
2013-02-24 12:05:00,60.2,48.0,30.01,ESE,109,0.0,2.0,64,0.00,,,0.00,weatherlink.com 1.10,2013-02-24 17:05:00,
2013-02-24 12:20:00,60.8,45.0,30.01,East,88,0.0,3.0,57,0.00,,,0.00,weatherlink.com 1.10,2013-02-24 17:20:00,
2013-02-24 12:35:00,60.8,47.0,30.00,ESE,107,2.0,4.0,60,0.00,,,0.00,weatherlink.com 1.10,2013-02-24 17:35:00,
2013-02-24 12:50:00,62.6,43.0,30.00,SW,234,0.0,5.0,49,0.00,,,0.00,weatherlink.com 1.10,2013-02-24 17:50:00,
2013-02-24 13:05:00,63.7,42.0,29.99,WSW,241,3.0,4.0,45,0.00,,,0.00,weatherlink.com 1.10,2013-02-24 18:05:00,
2013-02-24 13:20:00,63.7,42.0,29.98,SW,216,3.0,5.0,45,0.00,,,0.00,weatherlink.com 1.10,2013-02-24 18:20:00,
2013-02-24 13:35:00,63.0,42.0,29.98,WSW,256,3.0,7.0,47,0.00,,,0.00,weatherlink.com 1.10,2013-02-24 18:35:00,
2013-02-24 13:50:00,64.1,42.0,29.97,SSW,205,0.0,4.0,44,0.00,,,0.00,weatherlink.com 1.10,2013-02-24 18:50:00,
2013-02-24 14:05:00,65.9,44.0,29.97,ENE,67,0.0,4.0,45,0.00,,,0.00,weatherlink.com 1.10,2013-02-24 19:05:00,
2013-02-24 14:20:00,67.3,41.0,29.96,WSW,238,1.0,2.0,39,0.00,,,0.00,weatherlink.com 1.10,2013-02-24 19:20:00,
2013-02-24 14:35:00,66.5,43.0,29.95,East,89,0.0,7.0,43,0.00,,,0.00,weatherlink.com 1.10,2013-02-24 19:35:00,
2013-02-24 14:50:00,68.7,43.0,29.96,ENE,71,1.0,3.0,39,0.00,,,0.00,weatherlink.com 1.10,2013-02-24 19:50:00,
2013-02-24 15:05:00,68.5,40.0,29.95,NW,324,2.0,3.0,36,0.00,,,0.00,weatherlink.com 1.10,2013-02-24 20:05:00,
2013-02-24 15:20:00,67.3,39.0,29.95,SSW,195,0.0,6.0,35,0.00,,,0.00,weatherlink.com 1.10,2013-02-24 20:20:00,
2013-02-24 15:36:00,67.7,38.0,29.95,WNW,302,3.0,7.0,34,0.00,,,0.00,weatherlink.com 1.10,2013-02-24 20:36:00,
2013-02-24 15:51:00,68.5,40.0,29.95,NW,304,2.0,3.0,35,0.00,,,0.00,weatherlink.com 1.10,2013-02-24 20:51:00,
2013-02-24 16:06:00,69.1,38.0,29.94,WSW,238,0.0,4.0,32,0.00,,,0.00,weatherlink.com 1.10,2013-02-24 21:06:00,
2013-02-24 16:21:00,69.8,41.0,29.94,SW,232,2.0,3.0,35,0.00,,,0.00,weatherlink.com 1.10,2013-02-24 21:21:00,
2013-02-24 16:36:00,68.5,36.0,29.94,WSW,237,2.0,6.0,30,0.00,,,0.00,weatherlink.com 1.10,2013-02-24 21:36:00,
2013-02-24 16:51:00,69.5,40.0,29.94,South,169,0.0,4.0,34,0.00,,,0.00,weatherlink.com 1.10,2013-02-24 21:51:00,
2013-02-24 17:06:00,68.9,39.0,29.94,WNW,298,0.0,2.0,33,0.00,,,0.00,weatherlink.com 1.10,2013-02-24 22:06:00,
2013-02-24 17:21:00,67.0,36.0,29.94,SW,217,1.0,4.0,32,0.00,,,0.00,weatherlink.com 1.10,2013-02-24 22:21:00,
2013-02-24 17:36:00,66.1,38.0,29.94,SSW,195,0.0,1.0,36,0.00,,,0.00,weatherlink.com 1.10,2013-02-24 22:36:00,
2013-02-24 17:51:00,64.8,39.0,29.95,West,269,0.0,2.0,39,0.00,,,0.00,weatherlink.com 1.10,2013-02-24 22:51:00,
2013-02-24 18:06:00,62.1,36.0,29.96,SW,221,0.0,2.0,38,0.00,,,0.00,weatherlink.com 1.10,2013-02-24 23:06:00,
2013-02-24 18:21:00,60.7,37.0,29.96,SW,221,0.0,0.0,41,0.00,,,0.00,weatherlink.com 1.10,2013-02-24 23:21:00,
2013-02-24 18:36:00,58.6,37.0,29.96,SW,221,0.0,0.0,44,0.00,,,0.00,weatherlink.com 1.10,2013-02-24 23:36:00,
2013-02-24 18:51:00,56.2,36.0,29.97,SW,221,0.0,0.0,47,0.00,,,0.00,weatherlink.com 1.10,2013-02-24 23:51:00,
2013-02-24 19:06:00,54.0,37.0,29.98,SW,221,0.0,0.0,53,0.00,,,0.00,weatherlink.com 1.10,2013-02-25 00:06:00,
2013-02-24 19:21:00,52.1,37.0,29.98,SW,221,0.0,0.0,56,0.00,,,0.00,weatherlink.com 1.10,2013-02-25 00:21:00,
2013-02-24 19:36:00,50.5,38.0,29.99,SSW,195,0.0,0.0,62,0.00,,,0.00,weatherlink.com 1.10,2013-02-25 00:36:00,
2013-02-24 19:51:00,49.6,36.0,29.99,SSW,195,0.0,0.0,61,0.00,,,0.00,weatherlink.com 1.10,2013-02-25 00:51:00,
2013-02-24 20:06:00,48.8,37.0,30.00,SSW,195,0.0,0.0,65,0.00,,,0.00,weatherlink.com 1.10,2013-02-25 01:06:00,
2013-02-24 20:21:00,47.8,37.0,30.00,SSW,195,0.0,0.0,66,0.00,,,0.00,weatherlink.com 1.10,2013-02-25 01:21:00,
2013-02-24 20:36:00,46.7,35.0,30.00,SSW,195,0.0,0.0,65,0.00,,,0.00,weatherlink.com 1.10,2013-02-25 01:36:00,
2013-02-24 20:51:00,45.7,38.0,30.00,SSW,195,0.0,0.0,74,0.00,,,0.00,weatherlink.com 1.10,2013-02-25 01:51:00,
2013-02-24 21:06:00,44.5,35.0,30.00,SSW,195,0.0,0.0,70,0.00,,,0.00,weatherlink.com 1.10,2013-02-25 02:06:00,
2013-02-24 21:21:00,43.9,35.0,30.01,South,187,0.0,0.0,71,0.00,,,0.00,weatherlink.com 1.10,2013-02-25 02:21:00,
2013-02-24 21:36:00,43.2,36.0,30.01,South,187,0.0,0.0,75,0.00,,,0.00,weatherlink.com 1.10,2013-02-25 02:36:00,
2013-02-24 21:51:00,42.3,35.0,30.02,South,187,0.0,0.0,74,0.00,,,0.00,weatherlink.com 1.10,2013-02-25 02:51:00,
2013-02-24 22:06:00,41.6,35.0,30.02,South,187,0.0,0.0,76,0.00,,,0.00,weatherlink.com 1.10,2013-02-25 03:06:00,
2013-02-24 22:21:00,41.0,34.0,30.02,South,187,0.0,0.0,77,0.00,,,0.00,weatherlink.com 1.10,2013-02-25 03:21:00,
2013-02-24 22:36:00,40.5,34.0,30.03,South,187,0.0,0.0,76,0.00,,,0.00,weatherlink.com 1.10,2013-02-25 03:36:00,
2013-02-24 22:51:00,40.0,33.0,30.02,SE,127,0.0,0.0,75,0.00,,,0.00,weatherlink.com 1.10,2013-02-25 03:51:00,
2013-02-24 23:06:00,39.4,33.0,30.02,SE,127,0.0,0.0,78,0.00,,,0.00,weatherlink.com 1.10,2013-02-25 04:06:00,
2013-02-24 23:21:00,38.8,33.0,30.02,SE,127,0.0,0.0,81,0.00,,,0.00,weatherlink.com 1.10,2013-02-25 04:21:00,
2013-02-24 23:36:00,38.2,33.0,30.02,SE,127,0.0,0.0,81,0.00,,,0.00,weatherlink.com 1.10,2013-02-25 04:36:00,
2013-02-24 23:51:00,37.7,33.0,30.02,SE,127,0.0,0.0,82,0.00,,,0.00,weatherlink.com 1.10,2013-02-25 04:51:00,